Wahoo, NE

4:32 AM CDT on April 25, 2018 (GMT -0500)
Wahoo Municipal

Weather History for KAHQ - March, 2013

Change the Weather History Date:

Thursday, March 14, 2013

  Actual Average Record
Temperature  
Mean Temperature 42 °F -  
Max Temperature 56 °F 49 °F 82 °F (2012)
Min Temperature 28 °F 26 °F 0 °F (1975)
Degree Days  
Heating Degree Days 23    
Moisture  
Dew Point 33 °F    
Average Humidity 77    
Maximum Humidity 93    
Minimum Humidity 58    
Precipitation  
Precipitation 0.00 in - - ()
Sea Level Pressure  
Sea Level Pressure 30.10 in    
Wind  
Wind Speed 6 mph (SSE)    
Max Wind Speed 10 mph    
Max Gust Speed -    
Visibility 10 miles    
Events      
Averages and records for this station are not official NWS values.
T = Trace of Precipitation, MM = Missing Value Source: NWS Daily Summary

Daily Weather History Graph

Daily Weather History Graph

Search for Another Location

Airport or City:

Astronomy

Mar. 14, 2013 Rise Set
Actual Time 7:39 AM CDT 7:32 PM CDT
Civil Twilight 7:11 AM CDT 7:59 PM CDT
Nautical Twilight 6:39 AM CDT 8:31 PM CDT
Astronomical Twilight 6:07 AM CDT 9:04 PM CDT
Moon 8:51 AM CDT (3/14) 10:52 PM CDT (3/14)
Length of Visible Light 12h 47m
Length of Day
11h 52m
Waxing Crescent, 9% of the Moon is Illuminated
Mar 14
Waxing Crescent
Mar 19
First Quarter
Mar 27
Full
Apr 2
Last Quarter
Apr 10
New

Hourly Weather History & Observations

Time (CDT) Temp. Windchill Dew Point Humidity Pressure Visibility Wind Dir Wind Speed Gust Speed Precip Events Conditions
12:15 AM 30.0 °F 22.4 °F 23.0 °F 75% 30.21 in 10.0 mi SSE 8.1 mph - N/A   Clear
12:35 AM 29.3 °F 21.5 °F 23.0 °F 77% 30.20 in 10.0 mi SSE 8.1 mph - N/A   Clear
12:55 AM 28.2 °F 19.5 °F 22.5 °F 79% 30.19 in 10.0 mi SSE 9.2 mph - N/A   Clear
1:15 AM 29.7 °F 22.0 °F 23.0 °F 76% 30.18 in 10.0 mi SSE 8.1 mph - N/A   Clear
1:35 AM 30.4 °F 22.9 °F 23.4 °F 75% 30.18 in 10.0 mi SSE 8.1 mph - N/A   Clear
1:55 AM 30.9 °F 22.8 °F 23.7 °F 75% 30.16 in 10.0 mi SSE 9.2 mph - N/A   Clear
2:15 AM 31.8 °F 23.9 °F 24.4 °F 74% 30.14 in 10.0 mi SSE 9.2 mph - N/A   Scattered Clouds
2:35 AM 32.0 °F 25.6 °F 24.8 °F 75% 30.14 in 10.0 mi SSE 6.9 mph - N/A   Scattered Clouds
2:55 AM 32.2 °F 23.8 °F 25.5 °F 76% 30.13 in 10.0 mi South 10.4 mph - N/A   Clear
3:15 AM 32.0 °F 24.8 °F 25.7 °F 78% 30.13 in 10.0 mi South 8.1 mph - N/A   Clear
3:35 AM 32.0 °F 24.8 °F 25.7 °F 78% 30.12 in 10.0 mi SSE 8.1 mph - N/A   Scattered Clouds
3:55 AM 32.0 °F 24.2 °F 26.1 °F 79% 30.10 in 10.0 mi SSE 9.2 mph - N/A   Clear
4:15 AM 32.2 °F 25.0 °F 25.7 °F 77% 30.10 in 10.0 mi SSE 8.1 mph - N/A   Scattered Clouds
4:35 AM 32.0 °F 24.8 °F 26.4 °F 80% 30.09 in 10.0 mi SSE 8.1 mph - N/A   Scattered Clouds
4:55 AM 32.0 °F 26.4 °F 26.6 °F 80% 30.09 in 10.0 mi SSE 5.8 mph - N/A   Scattered Clouds
5:15 AM 32.0 °F 27.5 °F 27.1 °F 82% 30.08 in 10.0 mi SE 4.6 mph - N/A   Scattered Clouds
5:35 AM 32.0 °F - 27.5 °F 83% 30.09 in 10.0 mi Calm Calm - N/A   Mostly Cloudy
5:55 AM 32.0 °F 25.6 °F 27.9 °F 85% 30.07 in 10.0 mi South 6.9 mph - N/A   Mostly Cloudy
6:15 AM 31.5 °F 25.8 °F 26.6 °F 82% 30.06 in 10.0 mi South 5.8 mph - N/A   Scattered Clouds
6:35 AM 30.7 °F 24.1 °F 26.1 °F 83% 30.06 in 10.0 mi South 6.9 mph - N/A   Clear
6:55 AM 28.6 °F 22.4 °F 25.0 °F 86% 30.05 in 10.0 mi SSE 5.8 mph - N/A   Clear
7:15 AM 28.0 °F 22.8 °F 24.6 °F 87% 30.05 in 10.0 mi SSE 4.6 mph - N/A   Clear
7:35 AM 28.4 °F 22.2 °F 24.8 °F 86% 30.05 in 10.0 mi South 5.8 mph - N/A   Clear
7:55 AM 28.6 °F - 25.3 °F 88% 30.07 in 10.0 mi Calm Calm - N/A   Clear
8:15 AM 29.3 °F - 25.7 °F 86% 30.07 in 10.0 mi Calm Calm - N/A   Clear
8:35 AM 28.8 °F - 25.2 °F 86% 30.07 in 10.0 mi Calm Calm - N/A   Clear
8:55 AM 31.1 °F - 27.1 °F 85% 30.07 in 10.0 mi Calm Calm - N/A   Clear
9:15 AM 32.9 °F - 27.3 °F 80% 30.07 in 10.0 mi Calm Calm - N/A   Clear
9:35 AM 34.0 °F - 28.0 °F 79% 30.08 in 10.0 mi Calm Calm - N/A   Clear
9:55 AM 36.3 °F - 29.1 °F 75% 30.09 in 10.0 mi Calm Calm - N/A   Clear
10:15 AM 37.4 °F - 29.8 °F 74% 30.09 in 10.0 mi Calm Calm - N/A   Clear
10:35 AM 37.8 °F - 30.0 °F 74% 30.09 in 10.0 mi Calm Calm - N/A   Clear
10:55 AM 38.1 °F 35.7 °F 30.0 °F 73% 30.09 in 10.0 mi North 3.5 mph - N/A   Clear
11:15 AM 39.0 °F - 31.1 °F 73% 30.09 in 10.0 mi Calm Calm - N/A   Clear
11:35 AM 42.6 °F 39.0 °F 32.4 °F 67% 30.10 in 10.0 mi NW 5.8 mph - N/A   Clear
11:55 AM 44.4 °F 42.0 °F 33.3 °F 65% 30.10 in 10.0 mi NW 4.6 mph - N/A   Clear
12:15 PM 45.5 °F 40.3 °F 33.8 °F 64% 30.10 in 10.0 mi NW 10.4 mph - N/A   Clear
12:35 PM 46.9 °F - 34.2 °F 61% 30.11 in 10.0 mi NNW 6.9 mph - N/A   Clear
12:55 PM 45.5 °F 41.8 °F 34.7 °F 66% 30.12 in 10.0 mi North 6.9 mph - N/A   Clear
1:15 PM 44.8 °F 40.4 °F 35.8 °F 71% 30.12 in 10.0 mi NNW 8.1 mph - N/A   Clear
1:35 PM 47.7 °F - 36.3 °F 65% 30.12 in 10.0 mi NNW 8.1 mph - N/A   Clear
1:55 PM 47.5 °F - 37.4 °F 68% 30.12 in 10.0 mi NNW 6.9 mph - N/A   Clear
2:15 PM 49.5 °F - 38.5 °F 66% 30.12 in 10.0 mi NNW 4.6 mph - N/A   Clear
2:35 PM 48.9 °F - 39.6 °F 70% 30.11 in 10.0 mi NNW 5.8 mph - N/A   Clear
2:55 PM 50.5 °F - 40.1 °F 67% 30.11 in 10.0 mi NNW 4.6 mph - N/A   Clear
3:15 PM 51.4 °F - 39.9 °F 65% 30.10 in 10.0 mi North 5.8 mph - N/A   Clear
3:35 PM 52.3 °F - 41.5 °F 67% 30.10 in 10.0 mi North 3.5 mph - N/A   Clear
3:55 PM 54.1 °F - 42.6 °F 65% 30.09 in 10.0 mi Calm Calm - N/A   Clear
4:15 PM 56.1 °F - 42.4 °F 60% 30.09 in 10.0 mi Calm Calm - N/A   Clear
4:35 PM 56.3 °F - 43.5 °F 62% 30.09 in 10.0 mi Calm Calm - N/A   Clear
4:55 PM 56.5 °F - 43.5 °F 62% 30.10 in 10.0 mi Calm Calm - N/A   Clear
5:15 PM 56.7 °F - 41.9 °F 58% 30.11 in 10.0 mi Calm Calm - N/A   Clear
5:35 PM 55.4 °F - 42.4 °F 62% 30.12 in 10.0 mi Calm Calm - N/A   Clear
5:55 PM 56.3 °F - 43.7 °F 63% 30.11 in 10.0 mi NNE 3.5 mph - N/A   Clear
6:15 PM 55.2 °F - 44.2 °F 67% 30.11 in 10.0 mi ENE 3.5 mph - N/A   Clear
6:35 PM 51.8 °F - 43.9 °F 74% 30.11 in 10.0 mi ESE 3.5 mph - N/A   Clear
6:55 PM 51.1 °F - 43.7 °F 76% 30.10 in 10.0 mi Calm Calm - N/A   Clear
7:15 PM 49.6 °F - 42.3 °F 76% 30.10 in 10.0 mi Calm Calm - N/A   Clear
7:35 PM 47.1 °F - 41.5 °F 81% 30.10 in 10.0 mi ESE 4.6 mph - N/A   Clear
7:55 PM 43.7 °F 39.7 °F 39.9 °F 87% 30.09 in 10.0 mi SSE 6.9 mph - N/A   Clear
8:15 PM 41.9 °F 38.2 °F 38.7 °F 88% 30.10 in 10.0 mi SE 5.8 mph - N/A   Clear
8:35 PM 41.4 °F 38.4 °F 38.5 °F 89% 30.09 in 10.0 mi SE 4.6 mph - N/A   Clear
8:55 PM 41.0 °F 38.0 °F 38.3 °F 90% 30.08 in 10.0 mi SE 4.6 mph - N/A   Clear
9:15 PM 40.5 °F - 37.9 °F 91% 30.09 in 10.0 mi Calm Calm - N/A   Clear
9:35 PM 43.2 °F - 39.6 °F 87% 30.08 in 10.0 mi Calm Calm - N/A   Clear
9:55 PM 39.6 °F 37.4 °F 36.9 °F 90% 30.07 in 10.0 mi East 3.5 mph - N/A   Clear
10:15 PM 37.8 °F 34.2 °F 35.6 °F 92% 30.08 in 7.0 mi SW 4.6 mph - N/A   Clear
10:35 PM 38.3 °F 33.2 °F 36.5 °F 93% 30.08 in 10.0 mi SW 6.9 mph - N/A   Clear
10:55 PM 39.2 °F 35.0 °F 37.0 °F 92% 30.07 in 10.0 mi SW 5.8 mph - N/A   Clear
11:15 PM 39.4 °F 35.2 °F 36.7 °F 90% 30.07 in 10.0 mi SSW 5.8 mph - N/A   Clear
11:35 PM 40.8 °F 36.9 °F 37.2 °F 87% 30.07 in 10.0 mi SSW 5.8 mph - N/A   Clear
11:55 PM 39.9 °F 37.8 °F 36.1 °F 86% 30.06 in 10.0 mi South 3.5 mph - N/A   Clear